Darstellungsparameter: Aktuell verwendete Einstellungen:
Skalierung der Graphiken ... ?
xyx+y,   Skalierungsfaktor:      Skalierung: Modus: x, Faktor: 1
Darstellungszeitraum ... ?
Vom - - bis: - -   Zeitraum: 15.06.2021 - 15.06.2021
Min/Max/Avg-Anzeige ... ?
Zeige MMA aktuell
Zeige MMA Monat
Zeige MMA alles
Zeige --A aktuell
Zeige --A Monat
Zeige --A alles
Keine MMA-Anzeige
MMA:
Average (ber die Originaldaten)
MMA-Basis: 15.06.2021 - 15.06.2021
Quicknavigation für Darstellung... ?
Tage:      1T, 2T, 3T, 5T -1T -2T -3T -5T +1T +2T +3T +5T
Wochen: 1W, 2W, 3W -1W -2W -3W +1W +2W +3W
Monate: 1M, 3M, 6M -1M -3M -6M +1M +3M +6M
Jahre:    1J, 3J, 5J, 10J -1J -3J -5J -10J +1J +3J +5J +10J
Nutze für die Darstellung ... ?
Originaldaten oder Mittelwerte auf ...
Stundenbasis Tagesbasis Wochenbasis
Monatsbasis Jahresbasis      Datenbasis: Original-Daten
Darstellen als:
Statistik (Auto) Statistik J:M      Darstellung:

Der gewünschte Datumsbereich war nicht gültig/verfügbar und wurde korrigiert....
Das angegebene Enddatum (13.10.2021 23:59:59) liegt in der Zukunft.
Das angegebene Startdatum (13.10.2021 00:00:00) liegt in der Zukunft.


Zur Graphik,    zurück zur Übersicht aller Sensoren.
 
Tabellarische Datenbersicht: ?
 
Sensor: Nr:Datum:Temp:Abs-Feuchte:Windchill:Wind:
Aussen-T/F 1 15-06-2021 02:00:00 15.5 C 11.24 g/m*3 15.5 C 1.6 km/h
2 15-06-2021 02:05:00 15.4 C 11.17 g/m*3 15.4 C 0 km/h
3 15-06-2021 02:10:00 15.3 C 11.23 g/m*3 15.3 C 1.6 km/h
4 15-06-2021 02:15:00 15.3 C 11.23 g/m*3 15.3 C 1.6 km/h
5 15-06-2021 02:20:00 15.3 C 11.23 g/m*3 15.3 C 0 km/h
6 15-06-2021 02:25:00 15.3 C 11.36 g/m*3 15.3 C 0 km/h
7 15-06-2021 02:30:00 15.3 C 11.23 g/m*3 15.3 C 0 km/h
8 15-06-2021 02:35:00 15.2 C 11.16 g/m*3 15.2 C 3.2 km/h
9 15-06-2021 02:40:00 15.2 C 11.29 g/m*3 15.2 C 0 km/h
10 15-06-2021 02:45:00 15.1 C 11.22 g/m*3 15.1 C 0 km/h
11 15-06-2021 02:50:00 15.1 C 11.22 g/m*3 15.1 C 0 km/h
12 15-06-2021 02:55:00 14.9 C 11.09 g/m*3 14.9 C 0 km/h
13 15-06-2021 03:00:00 14.9 C 11.09 g/m*3 14.9 C 0 km/h
14 15-06-2021 03:05:00 14.8 C 11.15 g/m*3 14.8 C 0 km/h
15 15-06-2021 03:10:00 14.8 C 11.02 g/m*3 14.8 C 0 km/h
16 15-06-2021 03:15:00 14.7 C 10.95 g/m*3 14.7 C 0 km/h
17 15-06-2021 03:20:00 14.6 C 11.01 g/m*3 14.6 C 1.6 km/h
18 15-06-2021 03:25:00 14.6 C 11.01 g/m*3 14.6 C 3.2 km/h
19 15-06-2021 03:30:00 14.6 C 11.01 g/m*3 14.6 C 4.8 km/h
20 15-06-2021 03:35:00 14.5 C 10.94 g/m*3 14.5 C 0 km/h
21 15-06-2021 03:40:00 14.4 C 11 g/m*3 14.4 C 0 km/h
22 15-06-2021 03:45:00 14.4 C 11 g/m*3 14.4 C 0 km/h
23 15-06-2021 03:50:00 14.5 C 11.07 g/m*3 14.5 C 4.8 km/h
24 15-06-2021 03:55:00 14.5 C 11.19 g/m*3 14.5 C 0 km/h
25 15-06-2021 04:00:00 14.6 C 11.14 g/m*3 14.6 C 0 km/h
Sensor: Nr:Datum:Temp:Abs-Feuchte:Windchill:Wind:
Aussen-T/F 26 15-06-2021 04:05:00 14.5 C 11.07 g/m*3 14.5 C 1.6 km/h
27 15-06-2021 04:10:00 14.4 C 11 g/m*3 14.4 C 0 km/h
28 15-06-2021 04:15:00 14.3 C 11.06 g/m*3 14.3 C 0 km/h
29 15-06-2021 04:20:00 14.3 C 11.06 g/m*3 14.3 C 0 km/h
30 15-06-2021 04:25:00 14.3 C 11.06 g/m*3 14.3 C 0 km/h
31 15-06-2021 04:30:00 14.2 C 10.99 g/m*3 14.2 C 0 km/h
32 15-06-2021 04:35:00 14.1 C 10.92 g/m*3 14.1 C 0 km/h
33 15-06-2021 04:40:00 14.1 C 10.92 g/m*3 14.1 C 0 km/h
34 15-06-2021 04:45:00 14 C 10.98 g/m*3 14 C 0 km/h
35 15-06-2021 04:50:00 13.9 C 10.91 g/m*3 13.9 C 0 km/h
36 15-06-2021 04:55:00 13.9 C 10.91 g/m*3 13.9 C 0 km/h
37 15-06-2021 05:00:00 13.8 C 10.84 g/m*3 13.8 C 0 km/h
38 15-06-2021 05:05:00 13.8 C 10.84 g/m*3 13.8 C 0 km/h
39 15-06-2021 05:10:00 13.8 C 10.96 g/m*3 13.8 C 0 km/h
40 15-06-2021 05:15:00 13.8 C 10.96 g/m*3 13.8 C 0 km/h
41 15-06-2021 05:20:00 13.8 C 10.96 g/m*3 13.8 C 0 km/h
42 15-06-2021 05:25:00 13.7 C 10.89 g/m*3 13.7 C 1.6 km/h
43 15-06-2021 05:30:00 13.7 C 10.89 g/m*3 13.7 C 0 km/h
44 15-06-2021 05:35:00 13.7 C 10.89 g/m*3 13.7 C 0 km/h
45 15-06-2021 05:40:00 13.7 C 10.89 g/m*3 13.7 C 0 km/h
46 15-06-2021 05:45:00 13.7 C 10.89 g/m*3 13.7 C 0 km/h
47 15-06-2021 05:50:00 13.7 C 10.89 g/m*3 13.7 C 0 km/h
48 15-06-2021 05:55:00 13.7 C 10.89 g/m*3 13.7 C 0 km/h
49 15-06-2021 06:00:00 13.7 C 10.89 g/m*3 13.7 C 0 km/h
50 15-06-2021 06:05:00 13.7 C 11.01 g/m*3 13.7 C 0 km/h
Sensor: Nr:Datum:Temp:Abs-Feuchte:Windchill:Wind:
Aussen-T/F 51 15-06-2021 06:10:00 13.7 C 11.01 g/m*3 13.7 C 0 km/h
52 15-06-2021 06:15:00 13.7 C 11.01 g/m*3 13.7 C 0 km/h
53 15-06-2021 06:20:00 13.7 C 11.01 g/m*3 13.7 C 0 km/h
54 15-06-2021 06:25:00 13.8 C 11.08 g/m*3 13.8 C 0 km/h
55 15-06-2021 06:30:00 13.8 C 11.08 g/m*3 13.8 C 0 km/h
56 15-06-2021 06:35:00 13.9 C 11.15 g/m*3 13.9 C 0 km/h
57 15-06-2021 06:40:00 14 C 11.22 g/m*3 14 C 0 km/h
58 15-06-2021 06:45:00 14.1 C 11.41 g/m*3 14.1 C 0 km/h
59 15-06-2021 06:50:00 14.2 C 11.36 g/m*3 14.2 C 0 km/h
60 15-06-2021 06:55:00 14.3 C 11.55 g/m*3 14.3 C 0 km/h
61 15-06-2021 07:00:00 14.4 C 11.62 g/m*3 14.4 C 0 km/h
62 15-06-2021 07:05:00 14.6 C 11.76 g/m*3 14.6 C 0 km/h
63 15-06-2021 07:10:00 14.6 C 11.76 g/m*3 14.6 C 0 km/h
64 15-06-2021 07:15:00 14.7 C 11.83 g/m*3 14.7 C 0 km/h
65 15-06-2021 07:20:00 14.8 C 11.91 g/m*3 14.8 C 0 km/h
66 15-06-2021 07:25:00 14.9 C 11.85 g/m*3 14.9 C 0 km/h
67 15-06-2021 07:30:00 15.1 C 12 g/m*3 15.1 C 0 km/h
68 15-06-2021 07:35:00 15.2 C 12.07 g/m*3 15.2 C 0 km/h
69 15-06-2021 07:40:00 15.3 C 12.14 g/m*3 15.3 C 0 km/h
70 15-06-2021 07:45:00 15.3 C 12.14 g/m*3 15.3 C 0 km/h
71 15-06-2021 07:50:00 15.4 C 12.09 g/m*3 15.4 C 3.2 km/h
72 15-06-2021 07:55:00 15.6 C 12.23 g/m*3 15.6 C 3.2 km/h
73 15-06-2021 08:00:00 15.8 C 12.25 g/m*3 15.8 C 3.2 km/h
74 15-06-2021 08:05:00 15.9 C 12.19 g/m*3 15.9 C 3.2 km/h
75 15-06-2021 08:10:00 16.1 C 12.2 g/m*3 16.1 C 0 km/h
Sensor: Nr:Datum:Temp:Abs-Feuchte:Windchill:Wind:
Aussen-T/F 76 15-06-2021 08:15:00 16.3 C 12.35 g/m*3 16.3 C 1.6 km/h
77 15-06-2021 08:20:00 16.4 C 12.28 g/m*3 16.4 C 1.6 km/h
78 15-06-2021 08:25:00 16.7 C 12.51 g/m*3 16.7 C 1.6 km/h
79 15-06-2021 08:30:00 16.9 C 12.51 g/m*3 16.9 C 1.6 km/h
80 15-06-2021 08:35:00 17.1 C 12.66 g/m*3 17.1 C 0 km/h
81 15-06-2021 08:40:00 17.2 C 12.74 g/m*3 17.2 C 1.6 km/h
82 15-06-2021 08:45:00 17.4 C 12.6 g/m*3 17.4 C 1.6 km/h
83 15-06-2021 08:50:00 17.6 C 12.6 g/m*3 17.6 C 0 km/h
84 15-06-2021 08:55:00 17.8 C 12.75 g/m*3 17.8 C 0 km/h
85 15-06-2021 09:00:00 18 C 12.75 g/m*3 18 C 0 km/h
86 15-06-2021 09:05:00 18.2 C 12.75 g/m*3 18.2 C 0 km/h
87 15-06-2021 09:10:00 18.4 C 12.9 g/m*3 18.4 C 0 km/h
88 15-06-2021 09:15:00 18.7 C 13.13 g/m*3 18.7 C 0 km/h
89 15-06-2021 09:20:00 18.9 C 13.28 g/m*3 18.9 C 3.2 km/h
90 15-06-2021 09:25:00 19.2 C 13.36 g/m*3 19.2 C 3.2 km/h
91 15-06-2021 09:30:00 19.4 C 13.18 g/m*3 19.4 C 4.8 km/h
92 15-06-2021 09:35:00 19.6 C 13.17 g/m*3 19.6 C 8.1 km/h
93 15-06-2021 09:40:00 19.8 C 13.15 g/m*3 19.8 C 6.4 km/h
94 15-06-2021 09:45:00 19.9 C 13.06 g/m*3 19.9 C 1.6 km/h
95 15-06-2021 09:50:00 19.9 C 13.06 g/m*3 19.9 C 3.2 km/h
96 15-06-2021 09:55:00 20 C 13.13 g/m*3 20 C 4.8 km/h
97 15-06-2021 10:00:00 20.1 C 13.21 g/m*3 20.1 C 6.4 km/h
98 15-06-2021 10:05:00 20.1 C 13.21 g/m*3 20.1 C 4.8 km/h
99 15-06-2021 10:10:00 20.2 C 13.29 g/m*3 20.2 C 6.4 km/h
100 15-06-2021 10:15:00 20.3 C 13.19 g/m*3 20.3 C 4.8 km/h
Sensor: Nr:Datum:Temp:Abs-Feuchte:Windchill:Wind:
Aussen-T/F 101 15-06-2021 10:20:00 20.5 C 13.17 g/m*3 20.5 C 4.8 km/h
102 15-06-2021 10:25:00 20.7 C 13.32 g/m*3 20.7 C 8.1 km/h
103 15-06-2021 10:30:00 20.9 C 13.48 g/m*3 20.9 C 6.4 km/h
104 15-06-2021 10:35:00 21.3 C 13.61 g/m*3 21.3 C 3.2 km/h
105 15-06-2021 10:40:00 21.7 C 13.54 g/m*3 21.7 C 3.2 km/h
106 15-06-2021 10:45:00 21.9 C 13.7 g/m*3 21.9 C 3.2 km/h
107 15-06-2021 10:50:00 22.2 C 13.94 g/m*3 22.2 C 4.8 km/h
108 15-06-2021 10:55:00 22.2 C 13.74 g/m*3 22.2 C 4.8 km/h
109 15-06-2021 11:00:00 22.3 C 13.82 g/m*3 22.3 C 3.2 km/h
110 15-06-2021 11:05:00 22.4 C 13.9 g/m*3 22.4 C 4.8 km/h
111 15-06-2021 11:10:00 22.6 C 13.86 g/m*3 22.6 C 8.1 km/h
112 15-06-2021 11:15:00 22.7 C 13.74 g/m*3 22.7 C 4.8 km/h
113 15-06-2021 11:20:00 22.6 C 13.46 g/m*3 22.6 C 6.4 km/h
114 15-06-2021 11:25:00 22.6 C 13.86 g/m*3 22.6 C 4.8 km/h
115 15-06-2021 11:30:00 22.7 C 13.94 g/m*3 22.7 C 4.8 km/h
116 15-06-2021 11:35:00 22.8 C 14.02 g/m*3 22.8 C 4.8 km/h
117 15-06-2021 11:40:00 22.9 C 14.1 g/m*3 22.9 C 1.6 km/h
118 15-06-2021 11:45:00 23 C 13.98 g/m*3 23 C 1.6 km/h
119 15-06-2021 11:50:00 23.1 C 14.26 g/m*3 23.1 C 1.6 km/h
120 15-06-2021 11:55:00 23.2 C 14.34 g/m*3 23.2 C 1.6 km/h
121 15-06-2021 12:00:00 23.3 C 14.01 g/m*3 23.3 C 4.8 km/h
122 15-06-2021 12:05:00 23.3 C 14.01 g/m*3 23.3 C 4.8 km/h
123 15-06-2021 12:10:00 23.4 C 14.09 g/m*3 23.4 C 4.8 km/h
124 15-06-2021 12:15:00 23.5 C 13.96 g/m*3 23.5 C 4.8 km/h
125 15-06-2021 12:20:00 23.6 C 14.04 g/m*3 23.6 C 3.2 km/h
Sensor: Nr:Datum:Temp:Abs-Feuchte:Windchill:Wind:
Aussen-T/F 126 15-06-2021 12:25:00 23.7 C 14.12 g/m*3 23.7 C 9.7 km/h
127 15-06-2021 12:30:00 23.9 C 14.06 g/m*3 23.9 C 8.1 km/h
128 15-06-2021 12:35:00 24.1 C 14.22 g/m*3 24.1 C 6.4 km/h
129 15-06-2021 12:40:00 24.2 C 14.3 g/m*3 24.2 C 8.1 km/h
130 15-06-2021 12:45:00 24.3 C 14.16 g/m*3 24.3 C 8.1 km/h
131 15-06-2021 12:50:00 24.6 C 14.18 g/m*3 24.6 C 8.1 km/h
132 15-06-2021 12:55:00 24.7 C 14.03 g/m*3 24.7 C 8.1 km/h
133 15-06-2021 13:00:00 24.8 C 14.34 g/m*3 24.8 C 6.4 km/h
134 15-06-2021 13:05:00 24.9 C 14.42 g/m*3 24.9 C 4.8 km/h
135 15-06-2021 13:10:00 24.9 C 13.96 g/m*3 24.9 C 9.7 km/h
136 15-06-2021 13:15:00 25.2 C 14.43 g/m*3 25.2 C 8.1 km/h
137 15-06-2021 13:20:00 25.3 C 14.28 g/m*3 25.3 C 6.4 km/h
138 15-06-2021 13:25:00 25.4 C 14.13 g/m*3 25.4 C 8.1 km/h
139 15-06-2021 13:30:00 25.6 C 14.52 g/m*3 25.6 C 8.1 km/h
140 15-06-2021 13:35:00 25.8 C 14.2 g/m*3 25.8 C 12.9 km/h
141 15-06-2021 13:40:00 25.8 C 13.72 g/m*3 25.8 C 6.4 km/h
142 15-06-2021 13:45:00 25.8 C 13.48 g/m*3 25.8 C 3.2 km/h
143 15-06-2021 13:50:00 25.8 C 13.72 g/m*3 25.8 C 8.1 km/h
144 15-06-2021 13:55:00 25.9 C 13.56 g/m*3 25.9 C 6.4 km/h
145 15-06-2021 14:00:00 26.1 C 13.95 g/m*3 26.1 C 6.4 km/h
146 15-06-2021 14:05:00 26.1 C 13.71 g/m*3 26.1 C 4.8 km/h
147 15-06-2021 14:10:00 26.2 C 14.03 g/m*3 26.2 C 8.1 km/h
148 15-06-2021 14:15:00 26.4 C 13.44 g/m*3 26.4 C 11.3 km/h
149 15-06-2021 14:20:00 26.4 C 13.19 g/m*3 26.4 C 8.1 km/h
150 15-06-2021 14:25:00 26.3 C 13.86 g/m*3 26.3 C 9.7 km/h
Sensor: Nr:Datum:Temp:Abs-Feuchte:Windchill:Wind:
Aussen-T/F 151 15-06-2021 14:30:00 26.3 C 13.86 g/m*3 26.3 C 6.4 km/h
152 15-06-2021 14:35:00 26.4 C 13.69 g/m*3 26.4 C 6.4 km/h
153 15-06-2021 14:40:00 26.7 C 13.42 g/m*3 26.7 C 8.1 km/h
154 15-06-2021 14:45:00 26.8 C 13.24 g/m*3 26.8 C 11.3 km/h
155 15-06-2021 14:50:00 26.9 C 13.31 g/m*3 26.9 C 6.4 km/h
156 15-06-2021 14:55:00 26.9 C 13.56 g/m*3 26.9 C 4.8 km/h
157 15-06-2021 15:00:00 27.2 C 13.01 g/m*3 27.2 C 11.3 km/h
158 15-06-2021 15:05:00 27.3 C 13.34 g/m*3 27.3 C 6.4 km/h
159 15-06-2021 15:10:00 27.4 C 12.89 g/m*3 27.4 C 4.8 km/h
160 15-06-2021 15:15:00 27.5 C 13.23 g/m*3 27.5 C 11.3 km/h
161 15-06-2021 15:20:00 27.6 C 13.04 g/m*3 27.6 C 12.9 km/h
162 15-06-2021 15:25:00 27.7 C 13.64 g/m*3 27.7 C 11.3 km/h
163 15-06-2021 15:30:00 27.8 C 13.72 g/m*3 27.8 C 4.8 km/h
164 15-06-2021 15:35:00 28.2 C 13.75 g/m*3 28.2 C 9.7 km/h
165 15-06-2021 15:40:00 28.3 C 13.82 g/m*3 28.3 C 6.4 km/h
166 15-06-2021 15:45:00 28.5 C 13.7 g/m*3 28.5 C 11.3 km/h
167 15-06-2021 15:50:00 28.6 C 13.77 g/m*3 28.6 C 9.7 km/h
168 15-06-2021 15:55:00 28.3 C 13.82 g/m*3 28.3 C 8.1 km/h
169 15-06-2021 16:00:00 28.3 C 13.55 g/m*3 28.3 C 9.7 km/h
170 15-06-2021 16:05:00 28.4 C 13.62 g/m*3 28.4 C 11.3 km/h
171 15-06-2021 16:10:00 28.7 C 14.13 g/m*3 28.7 C 9.7 km/h
172 15-06-2021 16:15:00 28.8 C 13.64 g/m*3 28.8 C 11.3 km/h
173 15-06-2021 16:20:00 28.9 C 14 g/m*3 28.9 C 8.1 km/h
174 15-06-2021 16:25:00 29 C 13.5 g/m*3 29 C 11.3 km/h
175 15-06-2021 16:30:00 29 C 13.21 g/m*3 29 C 11.3 km/h
Sensor: Nr:Datum:Temp:Abs-Feuchte:Windchill:Wind:
Aussen-T/F 176 15-06-2021 16:35:00 28.9 C 13.43 g/m*3 28.9 C 8.1 km/h
177 15-06-2021 16:40:00 29 C 13.79 g/m*3 29 C 14.5 km/h
178 15-06-2021 16:45:00 29.1 C 13 g/m*3 29.1 C 14.5 km/h
179 15-06-2021 16:50:00 29.1 C 13.28 g/m*3 29.1 C 12.9 km/h
180 15-06-2021 16:55:00 29.2 C 13.07 g/m*3 29.2 C 9.7 km/h
181 15-06-2021 17:00:00 29.1 C 13 g/m*3 29.1 C 9.7 km/h
182 15-06-2021 17:05:00 29.1 C 13.57 g/m*3 29.1 C 6.4 km/h
183 15-06-2021 17:10:00 29.2 C 13.36 g/m*3 29.2 C 9.7 km/h
184 15-06-2021 17:15:00 29.3 C 13.14 g/m*3 29.3 C 6.4 km/h
185 15-06-2021 17:20:00 29.4 C 13.21 g/m*3 29.4 C 11.3 km/h
186 15-06-2021 17:25:00 29.3 C 13.43 g/m*3 29.3 C 12.9 km/h
187 15-06-2021 17:30:00 29.1 C 13.28 g/m*3 29.1 C 11.3 km/h
188 15-06-2021 17:35:00 28.9 C 13.14 g/m*3 28.9 C 11.3 km/h
189 15-06-2021 17:40:00 28.8 C 13.35 g/m*3 28.8 C 14.5 km/h
190 15-06-2021 17:45:00 28.9 C 13.43 g/m*3 28.9 C 9.7 km/h
191 15-06-2021 17:50:00 29 C 13.5 g/m*3 29 C 8.1 km/h
192 15-06-2021 17:55:00 28.9 C 14 g/m*3 28.9 C 11.3 km/h
193 15-06-2021 18:00:00 28.9 C 14 g/m*3 28.9 C 6.4 km/h
194 15-06-2021 18:05:00 28.8 C 13.64 g/m*3 28.8 C 6.4 km/h
195 15-06-2021 18:10:00 28.9 C 14 g/m*3 28.9 C 9.7 km/h
196 15-06-2021 18:15:00 28.8 C 13.07 g/m*3 28.8 C 11.3 km/h
197 15-06-2021 18:20:00 28.8 C 12.79 g/m*3 28.8 C 6.4 km/h
198 15-06-2021 18:25:00 28.9 C 13.71 g/m*3 28.9 C 8.1 km/h
199 15-06-2021 18:30:00 28.9 C 13.43 g/m*3 28.9 C 9.7 km/h
200 15-06-2021 18:35:00 28.8 C 13.92 g/m*3 28.8 C 9.7 km/h
Sensor: Nr:Datum:Temp:Abs-Feuchte:Windchill:Wind:
Aussen-T/F 201 15-06-2021 18:40:00 28.7 C 13.28 g/m*3 28.7 C 8.1 km/h
202 15-06-2021 18:45:00 28.5 C 13.42 g/m*3 28.5 C 9.7 km/h
203 15-06-2021 18:50:00 28.4 C 13.34 g/m*3 28.4 C 9.7 km/h
204 15-06-2021 18:55:00 28.3 C 13.55 g/m*3 28.3 C 11.3 km/h
205 15-06-2021 19:00:00 28.1 C 13.67 g/m*3 28.1 C 9.7 km/h
206 15-06-2021 19:05:00 27.9 C 13.52 g/m*3 27.9 C 9.7 km/h
207 15-06-2021 19:10:00 27.8 C 13.72 g/m*3 27.8 C 11.3 km/h
208 15-06-2021 19:15:00 27.7 C 13.64 g/m*3 27.7 C 6.4 km/h
209 15-06-2021 19:20:00 27.7 C 13.64 g/m*3 27.7 C 9.7 km/h
210 15-06-2021 19:25:00 27.6 C 13.83 g/m*3 27.6 C 6.4 km/h
211 15-06-2021 19:30:00 27.4 C 13.68 g/m*3 27.4 C 11.3 km/h
212 15-06-2021 19:35:00 27.3 C 13.87 g/m*3 27.3 C 9.7 km/h
213 15-06-2021 19:40:00 27.2 C 13.79 g/m*3 27.2 C 4.8 km/h
214 15-06-2021 19:45:00 27.2 C 14.05 g/m*3 27.2 C 8.1 km/h
215 15-06-2021 19:50:00 27.1 C 14.23 g/m*3 27.1 C 6.4 km/h
216 15-06-2021 19:55:00 27 C 13.9 g/m*3 27 C 9.7 km/h
217 15-06-2021 20:00:00 26.9 C 14.08 g/m*3 26.9 C 6.4 km/h
218 15-06-2021 20:05:00 26.8 C 13.74 g/m*3 26.8 C 6.4 km/h
219 15-06-2021 20:10:00 26.7 C 14.17 g/m*3 26.7 C 6.4 km/h
220 15-06-2021 20:15:00 26.7 C 13.92 g/m*3 26.7 C 6.4 km/h
221 15-06-2021 20:20:00 26.6 C 13.84 g/m*3 26.6 C 4.8 km/h
222 15-06-2021 20:25:00 26.6 C 14.1 g/m*3 26.6 C 4.8 km/h
223 15-06-2021 20:30:00 26.5 C 14.02 g/m*3 26.5 C 4.8 km/h
224 15-06-2021 20:35:00 26.4 C 13.94 g/m*3 26.4 C 3.2 km/h
225 15-06-2021 20:40:00 26.3 C 13.86 g/m*3 26.3 C 3.2 km/h
Sensor: Nr:Datum:Temp:Abs-Feuchte:Windchill:Wind:
Aussen-T/F 226 15-06-2021 20:45:00 26.2 C 13.79 g/m*3 26.2 C 4.8 km/h
227 15-06-2021 20:50:00 26.1 C 14.44 g/m*3 26.1 C 3.2 km/h
228 15-06-2021 20:55:00 26 C 15.34 g/m*3 26 C 0 km/h
229 15-06-2021 21:00:00 25.8 C 14.93 g/m*3 25.8 C 1.6 km/h
230 15-06-2021 21:05:00 25.5 C 15.15 g/m*3 25.5 C 1.6 km/h
231 15-06-2021 21:10:00 25.2 C 15.13 g/m*3 25.2 C 0 km/h
232 15-06-2021 21:15:00 24.8 C 15.02 g/m*3 24.8 C 0 km/h
233 15-06-2021 21:20:00 24.3 C 14.83 g/m*3 24.3 C 1.6 km/h
234 15-06-2021 21:25:00 23.9 C 14.71 g/m*3 23.9 C 3.2 km/h
235 15-06-2021 21:30:00 23.4 C 14.72 g/m*3 23.4 C 1.6 km/h
236 15-06-2021 21:35:00 23.2 C 14.76 g/m*3 23.2 C 0 km/h
237 15-06-2021 21:40:00 22.8 C 14.43 g/m*3 22.8 C 1.6 km/h
238 15-06-2021 21:45:00 22.6 C 14.46 g/m*3 22.6 C 0 km/h
239 15-06-2021 21:50:00 22.4 C 14.3 g/m*3 22.4 C 0 km/h
240 15-06-2021 21:55:00 22.2 C 14.14 g/m*3 22.2 C 1.6 km/h
241 15-06-2021 22:00:00 22.1 C 14.25 g/m*3 22.1 C 0 km/h
242 15-06-2021 22:05:00 21.8 C 14.01 g/m*3 21.8 C 1.6 km/h
243 15-06-2021 22:10:00 21.7 C 14.12 g/m*3 21.7 C 1.6 km/h
244 15-06-2021 22:15:00 21.6 C 14.03 g/m*3 21.6 C 3.2 km/h
245 15-06-2021 22:20:00 21.4 C 13.87 g/m*3 21.4 C 4.8 km/h
246 15-06-2021 22:25:00 21.3 C 13.98 g/m*3 21.3 C 4.8 km/h
247 15-06-2021 22:30:00 21.2 C 13.9 g/m*3 21.2 C 4.8 km/h
248 15-06-2021 22:35:00 21.1 C 14 g/m*3 21.1 C 3.2 km/h
249 15-06-2021 22:40:00 20.9 C 14.02 g/m*3 20.9 C 3.2 km/h
250 15-06-2021 22:45:00 20.8 C 13.94 g/m*3 20.8 C 1.6 km/h
Sensor: Nr:Datum:Temp:Abs-Feuchte:Windchill:Wind:
Aussen-T/F 251 15-06-2021 22:50:00 20.7 C 14.04 g/m*3 20.7 C 3.2 km/h
252 15-06-2021 22:55:00 20.6 C 13.96 g/m*3 20.6 C 0 km/h
253 15-06-2021 23:00:00 20.6 C 13.96 g/m*3 20.6 C 1.6 km/h
254 15-06-2021 23:05:00 20.5 C 13.88 g/m*3 20.5 C 0 km/h
255 15-06-2021 23:10:00 20.4 C 13.98 g/m*3 20.4 C 3.2 km/h
256 15-06-2021 23:15:00 20.4 C 13.98 g/m*3 20.4 C 3.2 km/h
257 15-06-2021 23:20:00 20.3 C 13.89 g/m*3 20.3 C 3.2 km/h
258 15-06-2021 23:25:00 20.3 C 13.89 g/m*3 20.3 C 0 km/h
259 15-06-2021 23:30:00 20.2 C 13.99 g/m*3 20.2 C 0 km/h
260 15-06-2021 23:35:00 20.1 C 13.91 g/m*3 20.1 C 0 km/h
261 15-06-2021 23:40:00 20 C 13.83 g/m*3 20 C 0 km/h
262 15-06-2021 23:45:00 19.9 C 13.92 g/m*3 19.9 C 0 km/h
263 15-06-2021 23:50:00 19.8 C 13.84 g/m*3 19.8 C 3.2 km/h
264 15-06-2021 23:55:00 19.7 C 13.75 g/m*3 19.7 C 0 km/h

Legende:
   Min
   Max


Maximal/Minimal-Werte vom 15.06.2021 - 15.06.2021

Sensor Min Max Avg
Temp
(Aussen-T/F)
13.7 °C
15-06-2021  05:25:00
29.4 °C
15-06-2021  17:20:00
21.63 °C
Abs-Feuchte
(Aussen-T/F)
10.84 g/m*3
15-06-2021  05:00:00
15.34 g/m*3
15-06-2021  20:55:00
12.97 g/m*3
Windchill
(Aussen-T/F)
13.7 C
15-06-2021  05:25:00
29.4 C
15-06-2021  17:20:00
21.55 C

Die Daten stammen von einer Davis Vantage Pro 2 Wetter-Station und werden unter Linux mit der Software wview2wettercgi und aufbereitet. Alle Angaben erfolgen ohne Gewähr für ihre Vollständigkeit oder Richtigkeit.
Kontakt: Rainer Krienke krienke@uni-koblenz.de . Meine Webseiten an der Uni Koblenz oder privat.
Version: $Revision: 0.78 $